Location: ??????
(41.3164°N, 22.6615°E)
Time: 17:14:16
(UTC+00:00)

CUBESAT XI-V - Pass Details

Date: 02 July 2022
Orbit: 668 x 690 km, 98.1° (Epoch: 17 August)

Event Time Altitude Azimuth Distance (km) Brightness Sun altitude
Exits shadow 23:14:22 16° 104° (ESE) 1,747 ? -25.0°
Maximum altitude 23:16:37 22° 66° (ENE) 1,449 ? -24.9°
Drops below altitude 10° 23:20:09 10° 16° (NNE) 2,107 ? -24.8°
Sets 23:22:46 0° 1° (N) 3,023 ? -24.7°
